Weather History for Huntsville, TX

Change the Weather History Date:

Tuesday, March 5, 2013

  Actual Average (KCXO) Record (KCXO)
Temperature  
Mean Temperature 56 °F -  
Max Temperature 66 °F 66 °F 82 °F (1998)
Min Temperature 39 °F 45 °F 26 °F (2002)
Degree Days  
Heating Degree Days 9    
Growing Degree Days 6 (Base 50)    
Moisture  
Dew Point 35 °F    
Average Humidity 46    
Maximum Humidity 87    
Minimum Humidity 22    
Precipitation  
Precipitation 0.00 in - - ()
Sea Level Pressure  
Sea Level Pressure 30.14 in    
Wind  
Wind Speed 12 mph (NW)    
Max Wind Speed 23 mph    
Max Gust Speed 33 mph    
Visibility 10 miles    
Events      
Averages and records for this station are not official NWS values.
T = Trace of Precipitation, MM = Missing Value Source: NWS Daily Summary

Daily Weather History Graph

Daily Weather History Graph

Search for Another Location

Airport:

Trip Planner

Search our weather history database for the weather conditions in past years. The results will help you decide how hot, cold, wet, or windy it might be!

Date:

Astronomy

Mar. 05, 2013 Rise Set
Actual Time 6:43 AM CST 6:24 PM CST
Civil Twilight 6:19 AM CST 6:48 PM CST
Nautical Twilight 5:51 AM CST 7:16 PM CST
Astronomical Twilight 5:23 AM CST 7:44 PM CST
Moon 1:39 AM CST (3/5) 12:21 PM CST (3/5)
Length of Visible Light 12h 28m
Length of Day
11h 40m
Last Quarter, 40% of the Moon is Illuminated
Mar 5
Last Quarter
Mar 11
New
Mar 19
First Quarter
Mar 27
Full
Apr 2
Last Quarter

Hourly Weather History & Observations

Time (CST) Temp. Windchill Dew Point Humidity Pressure Visibility Wind Dir Wind Speed Gust Speed Precip Events Conditions
1:53 AM 64.9 °F - 59.0 °F 81% 29.76 in 10.0 mi SSW 16.1 mph 27.6 mph N/A   Mostly Cloudy
2:53 AM 66.0 °F - 59.0 °F 78% 29.78 in 10.0 mi SSW 12.7 mph 24.2 mph N/A   Overcast
3:53 AM 64.9 °F - 59.0 °F 81% 29.90 in 10.0 mi West 8.1 mph 20.7 mph N/A   Overcast
4:20 AM 64.4 °F - 59.0 °F 83% 29.92 in 10.0 mi WSW 6.9 mph - 0.00 in   Scattered Clouds
4:53 AM 63.0 °F - 59.0 °F 87% 29.94 in 10.0 mi West 6.9 mph - 0.00 in   Mostly Cloudy
5:10 AM 60.8 °F - 46.4 °F 59% 29.99 in 10.0 mi NW 23.0 mph 33.4 mph N/A   Overcast
5:20 AM 57.2 °F - 44.6 °F 63% 30.00 in 10.0 mi NW 18.4 mph 33.4 mph N/A   Overcast
7:53 AM 51.1 °F - 37.0 °F 59% 30.14 in 10.0 mi North 9.2 mph 23.0 mph N/A   Clear
8:53 AM 54.0 °F - 35.1 °F 49% 30.17 in 10.0 mi North 13.8 mph 25.3 mph N/A   Clear
9:53 AM 57.0 °F - 33.1 °F 40% 30.19 in 10.0 mi North 13.8 mph 26.5 mph N/A   Clear
10:53 AM 57.9 °F - 30.9 °F 36% 30.21 in 10.0 mi North 12.7 mph 24.2 mph N/A   Clear
11:53 AM 60.1 °F - 28.0 °F 30% 30.22 in 10.0 mi North 15.0 mph 24.2 mph N/A   Clear
12:53 PM 62.1 °F - 26.1 °F 25% 30.22 in 10.0 mi NNW 10.4 mph 24.2 mph N/A   Clear
1:53 PM 61.0 °F - 26.1 °F 26% 30.21 in 10.0 mi NNW 13.8 mph 26.5 mph N/A   Clear
2:53 PM 64.0 °F - 25.0 °F 23% 30.21 in 10.0 mi NNW 15.0 mph 25.3 mph N/A   Clear
3:53 PM 63.0 °F - 25.0 °F 24% 30.21 in 10.0 mi NW 10.4 mph 20.7 mph N/A   Clear
4:53 PM 62.1 °F - 23.0 °F 22% 30.22 in 10.0 mi NNW 10.4 mph 18.4 mph N/A   Clear
5:53 PM 59.0 °F - 21.9 °F 24% 30.23 in 10.0 mi NNW 12.7 mph 20.7 mph N/A   Clear
6:53 PM 54.0 °F - 21.0 °F 28% 30.26 in 10.0 mi NNW 6.9 mph - N/A   Clear
7:53 PM 52.0 °F - 21.0 °F 30% 30.28 in 10.0 mi NNW 6.9 mph - N/A   Clear
8:53 PM 48.9 °F - 21.9 °F 35% 30.30 in 10.0 mi NNW 6.9 mph - N/A   Clear
9:53 PM 46.0 °F 44.8 °F 21.9 °F 39% 30.32 in 10.0 mi North 3.5 mph - N/A   Clear
10:53 PM 46.0 °F - 21.0 °F 37% 30.33 in 10.0 mi Calm Calm - N/A   Clear
11:53 PM 39.0 °F - 24.1 °F 55% 30.33 in 10.0 mi Calm Calm - N/A   Clear